Temperature
5 4 4 5 5 5 5 5 5 5 6 6 6 6 6 6 6 6 7 7 7 7 7 7 7 7 7 7 7 7 7 6 6 6 7 7 7 7 8 8 8 8 8
4 4 4 4 4 5 5 5 5 5 5 5 5 5 5 6 6 6 6 6 6 6 6 6 7 7 7 7 6 6 6 6 6 6 6 6 7 7 7 7 7 7 7
4 4 4 4 4 4 4 4 5 5 5 5 5 5 5 5 5 5 5 5 5 6 6 6 6 6 6 6 6 6 6 6 5 5 5 6 6 6 6 6 6 6 7
3 4 4 4 4 4 4 4 4 4 5 5 4 4 4 4 4 4 4 4 5 5 5 5 5 5 5 5 5 5 5 5 5 5 4 5 5 5 5 5 5 6 6
3 3 3 3 3 4 4 4 4 4 4 4 4 4 4 4 4 4 4 4 4 4 4 4 4 4 4 4 4 4 4 4 4 4 4 4 4 4 4 4 4 5 5
3 3 3 3 3 3 3 3 3 3 3 3 3 3 3 3 3 3 3 3 4 4 4 4 4 4 4 4 3 3 3 3 3 3 3 3 3 3 3 3 3 3 3
2 2 2 2 2 3 3 3 3 3 3 3 3 3 3 2 2 2 3 3 3 3 3 3 3 3 3 3 3 3 3 3 3 2 2 2 2 2 2 2 3 3 3
2 2 2 2 2 2 2 2 2 2 2 2 2 2 2 2 2 2 2 2 2 2 2 2 2 2 2 2 2 2 2 2 2 2 2 2 2 2 2 2 2 2 2
1 1 1 1 1 1 2 2 2 2 2 2 1 1 1 1 1 1 1 1 1 1 1 1 1 1 1 1 1 1 2 2 1 1 1 1 1 1 1 1 1 1 1
1 1 1 1 1 1 1 1 1 1 1 1 1 1 1 1 1 1 0 0 1 1 1 1 1 1 0 0 0 1 1 1 1 1 1 1 1 1 1 1 0 0 0
1 1 1 1 1 0 0 0 0 1 1 1 1 0 0 0 0 -0 -0 -0 -0 -0 -0 0 0 -0 -0 -0 -0 -0 -0 -0 -0 -0 0 0 0 0 0 0 -0 -0 -0
1 1 1 0 0 0 0 0 0 0 0 0 0 0 -0 -0 -0 -0 -1 -1 -1 -1 -1 -1 -1 -1 -1 -1 -1 -1 -1 -1 -1 -1 -1 -1 -1 -1 -1 -1 -0 -0 -0
1 1 0 0 0 0 -0 -0 -0 -0 -0 -0 -0 -0 -0 -1 -1 -1 -1 -1 -1 -1 -1 -1 -1 -1 -1 -1 -1 -1 -2 -2 -2 -2 -2 -2 -2 -2 -1 -1 -1 -1 -0
1 1 0 0 0 -0 -0 -0 -0 -1 -1 -1 -1 -1 -1 -1 -1 -2 -2 -2 -2 -2 -2 -2 -2 -2 -2 -2 -2 -2 -2 -2 -3 -3 -3 -3 -3 -2 -2 -2 -2 -2 -1
0 0 0 -0 -0 -0 -0 -1 -1 -1 -1 -2 -2 -2 -2 -2 -2 -2 -2 -2 -2 -2 -2 -2 -2 -2 -2 -3 -3 -3 -3 -3 -3 -3 -4 -3 -3 -3 -3 -3 -3 -3 -3
0 0 -0 -0 -0 -1 -1 -1 -1 -1 -2 -2 -2 -2 -2 -2 -3 -3 -3 -3 -3 -3 -3 -3 -3 -3 -4 -4 -4 -4 -4 -4 -4 -4 -4 -4 -4 -4 -4 -4 -4 -4 -4
0 -0 -0 -1 -1 -1 -1 -1 -1 -2 -2 -2 -2 -3 -3 -3 -3 -3 -3 -3 -3 -4 -4 -4 -4 -4 -5 -5 -5 -5 -5 -5 -5 -5 -5 -5 -5 -5 -5 -5 -5 -4 -4
-0 -1 -1 -1 -1 -1 -1 -2 -2 -2 -2 -2 -3 -3 -3 -3 -3 -3 -4 -4 -4 -4 -4 -5 -5 -5 -5 -5 -5 -5 -5 -5 -5 -5 -5 -5 -5 -5 -5 -5 -5 -5 -5
-1 -1 -1 -1 -1 -2 -2 -2 -2 -3 -3 -3 -3 -3 -3 -4 -4 -4 -4 -4 -5 -5 -5 -5 -5 -5 -5 -5 -6 -6 -6 -6 -6 -6 -6 -6 -6 -6 -6 -6 -6 -5 -5
-1 -1 -1 -2 -2 -2 -2 -2 -3 -3 -3 -3 -3 -3 -4 -4 -4 -4 -4 -5 -5 -5 -5 -5 -6 -6 -6 -6 -6 -6 -6 -6 -6 -6 -6 -6 -6 -6 -6 -6 -6 -6 -6
-1 -1 -1 -2 -2 -2 -3 -3 -3 -3 -4 -4 -4 -4 -4 -4 -4 -5 -5 -5 -5 -6 -6 -6 -6 -6 -6 -6 -6 -6 -7 -7 -7 -7 -7 -6 -6 -6 -7 -7 -6 -6 -6
-1 -1 -2 -2 -2 -3 -3 -3 -4 -4 -4 -4 -4 -4 -5 -5 -5 -5 -5 -6 -6 -6 -6 -6 -6 -6 -6 -7 -7 -7 -7 -7 -7 -7 -7 -7 -7 -7 -7 -7 -7 -6 -6
-2 -2 -2 -2 -3 -3 -3 -4 -4 -4 -4 -5 -5 -5 -5 -5 -5 -5 -6 -6 -6 -6 -6 -7 -7 -7 -7 -7 -7 -7 -7 -7 -7 -7 -7 -7 -7 -7 -7 -7 -7 -7 -6
-2 -2 -2 -3 -3 -4 -4 -4 -4 -5 -5 -5 -5 -5 -5 -6 -6 -6 -6 -6 -6 -7 -7 -7 -7 -7 -7 -7 -7 -7 -7 -7 -7 -7 -7 -7 -7 -7 -7 -7 -7 -7 -6
-2 -3 -3 -3 -4 -4 -4 -5 -5 -5 -5 -5 -6 -6 -6 -6 -6 -6 -6 -7 -7 -7 -7 -7 -7 -7 -7 -7 -7 -7 -7 -8 -8 -8 -8 -8 -7 -7 -7 -7 -7 -7 -7
-3 -3 -3 -4 -4 -4 -5 -5 -5 -6 -6 -6 -6 -6 -6 -6 -6 -7 -7 -7 -7 -7 -7 -7 -7 -7 -7 -7 -7 -7 -8 -8 -8 -8 -8 -8 -8 -7 -7 -7 -7 -7 -7
Wind_Speed
6 6 6 5 5 4 3 3 3 3 2 2 2 2 2 2 2 2 2 2 3 2 2 3 4 3 3 3 3 4 4 5 8 5 3 3 3 5 6 7 9 10 11
6 5 5 5 4 4 4 4 3 2 2 1 1 1 1 1 1 2 2 2 2 3 3 3 3 3 3 3 4 4 5 5 6 7 4 3 5 5 5 6 6 8 9
5 5 5 5 5 4 4 4 3 2 2 2 1 1 1 1 1 1 2 2 2 2 2 2 2 2 3 3 3 4 3 4 5 6 6 4 4 3 5 5 6 6 7
5 5 5 5 5 5 4 4 4 3 2 2 2 2 1 1 0 0 1 1 1 1 1 1 1 2 2 2 3 3 3 4 4 5 6 5 4 4 3 5 6 6 7
4 5 5 5 5 4 4 4 4 4 3 3 2 3 2 1 1 0 1 1 1 0 0 0 1 1 2 2 2 2 3 4 5 5 6 6 5 4 5 4 7 7 7
4 4 5 5 5 5 4 4 4 4 4 3 3 3 3 3 3 2 1 0 0 0 1 1 2 2 2 3 4 4 4 5 5 5 6 7 7 6 6 6 7 7 7
3 4 4 4 5 5 5 5 4 4 3 3 3 3 3 3 4 4 3 1 1 1 1 2 2 3 3 3 3 4 4 6 6 6 7 7 7 7 7 8 8 8 9
3 4 4 4 4 4 4 4 4 3 3 3 3 3 3 4 5 5 4 2 1 1 2 2 2 3 3 3 2 3 3 4 5 5 6 7 7 7 7 8 9 9 8
4 4 4 3 4 4 4 4 3 3 2 2 2 3 3 4 5 5 4 1 1 2 2 2 2 3 4 5 3 4 4 4 5 6 7 8 9 9 7 5 5 6 8
5 4 4 3 3 3 4 3 3 2 2 2 2 2 2 3 5 5 4 1 2 2 3 3 4 4 6 6 3 3 4 5 6 6 7 8 7 7 7 5 5 6 6
4 4 3 3 3 3 3 3 3 2 2 2 2 3 3 4 5 6 5 2 2 2 3 3 3 6 6 6 5 3 5 6 5 5 6 6 5 5 5 5 6 6 7
3 3 3 3 3 2 2 2 2 2 2 2 2 3 3 4 5 5 6 4 4 3 3 3 4 6 6 6 5 5 6 5 3 4 5 5 5 6 6 6 7 7 7
3 3 3 3 2 2 2 2 2 1 1 2 2 3 3 3 4 6 6 6 6 3 3 4 5 6 6 5 5 6 5 3 3 4 5 6 6 6 6 6 6 6 7
4 3 3 2 2 2 2 1 1 1 2 2 2 2 3 3 3 3 3 4 4 4 3 4 6 6 4 5 5 4 3 3 4 4 5 6 6 5 5 6 6 6 6
4 3 3 2 2 2 2 2 2 3 3 3 2 2 2 3 4 6 4 4 3 3 3 3 3 3 3 3 3 3 3 3 4 4 5 6 6 6 6 6 6 6 6
4 4 3 2 2 2 2 3 3 3 4 4 4 3 3 5 6 6 6 6 6 5 3 2 3 3 4 4 4 4 4 4 5 5 5 6 6 6 7 6 5 6 6
5 4 3 3 3 2 2 2 3 3 3 4 4 5 5 5 6 6 6 5 5 4 2 3 3 4 4 4 4 5 5 6 5 5 6 6 6 6 6 6 6 6 7
5 5 4 3 3 3 3 3 2 2 3 3 3 5 5 6 6 5 5 4 3 3 2 3 4 4 4 4 5 5 5 6 6 6 6 6 6 6 6 6 6 7 7
5 4 3 3 3 3 3 2 2 2 2 3 3 3 5 5 5 5 4 2 2 3 3 3 4 4 4 5 5 5 5 6 6 6 6 6 6 6 6 6 6 9 8
4 6 4 3 3 3 3 3 3 3 3 3 3 3 3 3 2 3 2 2 2 3 3 4 4 4 5 5 5 5 5 6 6 6 6 6 6 6 6 7 7 7 7
4 4 6 4 3 3 3 3 3 3 3 4 4 4 4 2 3 3 3 3 3 4 4 4 4 4 4 5 5 5 6 6 6 7 7 6 6 6 6 6 7 7 7
3 3 3 4 3 3 3 3 3 3 4 4 3 4 6 3 2 3 4 4 4 4 4 4 4 4 4 4 5 6 6 7 7 7 7 7 6 6 6 6 6 7 6
4 4 3 3 3 4 4 3 3 3 4 4 3 3 3 3 3 4 4 4 4 4 4 4 4 5 5 5 5 5 6 7 7 8 8 7 7 6 6 6 7 7 6
4 4 4 4 3 3 4 4 3 4 4 4 3 3 3 3 4 4 4 4 4 4 4 4 5 6 8 6 6 6 7 8 9 8 8 7 7 6 6 6 7 7 6
4 4 4 4 4 4 4 4 4 4 4 4 4 4 4 4 4 4 4 4 4 5 5 6 5 6 8 8 8 8 11 13 12 9 7 6 6 6 6 6 6 6 5
4 4 4 4 4 4 4 4 4 4 4 4 4 4 4 4 4 4 4 4 4 5 5 5 6 8 9 9 10 11 12 13 13 12 8 5 5 5 5 5 5 5 4
Wind_Direction
333 329 329 325 325 326 326 320 301 295 297 291 284 275 259 241 226 221 230 210 213 226 238 226 233 225 223 222 223 225 232 236 253 262 247 253 245 255 271 265 263 256 257
330 328 324 324 332 339 337 328 323 322 318 300 290 284 267 263 238 223 231 226 219 225 230 231 244 233 225 226 228 232 235 232 245 263 265 253 248 251 257 264 271 265 259
333 333 332 332 334 333 331 331 330 330 334 332 360 342 326 321 289 245 220 218 219 224 223 225 240 225 236 236 239 242 246 253 244 254 267 263 259 261 266 272 272 267 267
338 342 341 331 323 323 332 340 342 346 358 6 5 5 358 336 320 286 176 185 214 231 224 221 250 236 241 248 250 251 258 262 258 260 270 273 268 263 256 266 278 271 267
340 343 337 333 334 339 344 348 356 5 0 1 11 12 8 3 21 118 158 180 187 235 353 322 293 298 283 274 277 271 265 262 264 267 270 276 271 274 266 262 272 281 268
329 331 332 339 347 346 348 354 3 6 2 9 12 7 8 6 17 19 22 60 256 259 312 334 320 316 322 310 300 294 282 273 273 271 273 276 281 283 280 277 276 280 277
320 326 332 339 344 344 348 358 357 355 4 9 5 10 7 3 11 11 14 12 22 340 330 325 323 331 335 310 317 317 306 297 286 275 275 280 285 288 286 282 276 275 274
312 320 326 333 336 339 343 349 346 347 359 4 5 4 1 356 7 9 8 16 19 345 327 321 316 319 325 325 311 300 293 297 296 286 276 280 284 287 280 273 276 280 280
294 303 311 319 325 332 336 336 334 342 353 358 360 2 357 344 354 359 355 357 1 344 332 326 314 310 324 328 314 304 307 310 318 313 304 300 298 300 301 295 291 287 287
275 283 294 304 309 315 316 321 330 336 338 349 354 354 345 334 344 348 343 331 338 333 332 329 331 323 321 323 308 302 304 310 317 317 311 308 302 302 304 286 278 275 285
267 280 293 301 300 302 314 321 327 333 348 350 342 340 340 340 340 342 343 344 325 316 317 318 320 325 321 325 321 304 299 308 308 306 304 303 303 300 292 282 274 271 271
258 269 280 290 294 305 313 315 323 331 340 338 339 336 333 329 338 340 342 333 325 313 309 310 315 327 325 329 325 320 322 323 312 310 308 308 307 304 297 290 283 275 268
246 259 272 282 287 292 280 290 317 322 318 314 315 318 325 330 332 341 343 344 345 336 319 316 320 329 334 332 335 332 330 323 314 309 303 298 295 293 294 296 293 288 281
240 254 263 266 279 283 265 258 269 273 281 293 300 307 316 323 324 328 331 335 340 338 328 327 333 340 345 339 334 334 331 316 308 296 293 293 295 296 298 300 298 302 299
240 246 250 248 253 262 263 249 243 242 244 261 269 278 297 309 313 325 329 325 323 318 327 331 336 336 338 333 327 323 317 313 311 303 299 300 301 301 301 303 299 298 290
236 241 237 235 244 249 266 290 278 270 276 275 284 288 290 299 314 323 328 330 330 331 339 332 326 325 323 322 319 319 319 315 308 302 299 298 298 299 301 302 298 293 289
228 232 229 225 229 235 243 258 287 296 284 284 291 299 301 309 316 320 324 330 334 345 344 327 317 315 314 314 314 311 311 312 306 295 292 292 293 294 294 297 298 296 292
226 229 223 221 223 227 233 242 251 266 293 301 298 301 306 311 315 317 323 336 338 343 331 315 309 309 308 309 310 311 308 308 307 298 291 289 289 291 292 292 293 293 292
221 225 221 219 220 223 228 234 242 255 268 289 310 312 310 310 312 315 327 332 311 311 312 308 306 306 305 304 304 303 302 299 302 299 290 289 289 291 289 288 288 293 290
224 226 216 215 217 220 224 232 240 250 262 270 277 287 309 313 308 311 311 305 297 296 299 300 301 301 302 302 302 300 300 300 301 301 294 290 289 286 287 289 289 288 284
217 223 219 216 216 218 223 231 238 246 256 264 268 272 280 276 275 283 288 287 284 286 290 293 296 298 300 302 301 300 299 299 297 297 299 292 291 291 288 286 285 285 284
207 210 209 214 216 219 226 228 233 242 255 265 278 282 281 277 272 279 280 283 283 283 286 289 291 290 289 290 295 300 299 298 298 298 298 296 291 287 286 286 287 288 284
201 204 209 215 215 225 230 227 230 239 249 257 266 272 273 269 271 275 279 285 289 292 293 291 290 291 291 287 284 284 288 292 293 293 293 293 292 287 285 287 289 291 290
200 203 208 213 213 216 223 230 233 240 248 257 262 265 266 266 269 275 281 285 290 293 292 291 287 287 290 292 291 286 283 287 289 289 284 283 286 286 283 284 287 289 289
199 203 208 211 213 218 225 231 234 238 246 253 258 263 267 268 271 276 280 283 287 289 291 290 289 290 291 293 294 293 296 300 301 298 287 283 284 282 279 281 286 291 293
199 204 209 210 214 218 222 229 234 238 242 249 253 257 261 263 268 272 277 280 285 288 290 289 288 291 295 293 291 296 302 306 308 310 308 294 289 286 284 281 286 288 290
Height
1450 1448 1446 1444 1442 1440 1438 1436 1435 1434 1434 1433 1434 1433 1434 1435 1436 1438 1439 1440 1441 1442 1444 1445 1447 1448 1449 1451 1453 1453 1454 1455 1454 1453 1456 1456 1457 1458 1459 1459 1458 1458 1458
1449 1447 1444 1442 1440 1438 1436 1434 1433 1432 1431 1431 1430 1430 1430 1431 1432 1433 1434 1435 1436 1437 1439 1440 1441 1442 1443 1445 1447 1447 1448 1449 1449 1447 1448 1449 1450 1451 1451 1451 1451 1450 1450
1447 1445 1442 1440 1438 1436 1434 1433 1431 1430 1429 1428 1427 1427 1427 1428 1429 1429 1431 1432 1432 1433 1434 1435 1436 1437 1438 1439 1440 1441 1442 1443 1443 1442 1441 1442 1442 1443 1443 1443 1442 1442 1441
1446 1443 1441 1439 1436 1434 1433 1431 1429 1428 1427 1426 1425 1425 1425 1425 1426 1426 1427 1428 1429 1429 1430 1431 1431 1432 1432 1434 1434 1435 1436 1437 1437 1436 1435 1435 1435 1436 1436 1435 1433 1433 1433
1444 1442 1440 1437 1435 1433 1431 1429 1427 1426 1425 1424 1423 1423 1423 1423 1423 1424 1424 1425 1425 1425 1426 1426 1427 1428 1428 1430 1430 1430 1431 1431 1431 1430 1429 1429 1428 1428 1428 1427 1426 1425 1424
1442 1440 1438 1435 1433 1431 1429 1427 1425 1424 1423 1422 1422 1421 1420 1420 1421 1421 1422 1422 1422 1422 1422 1422 1423 1424 1424 1425 1425 1425 1426 1426 1425 1425 1424 1423 1422 1422 1421 1420 1419 1418 1415
1440 1437 1435 1433 1431 1428 1427 1425 1424 1422 1421 1420 1419 1419 1418 1418 1419 1419 1419 1419 1418 1419 1419 1419 1419 1419 1420 1420 1420 1420 1421 1421 1421 1421 1418 1417 1416 1415 1414 1413 1412 1410 1408
1437 1435 1433 1431 1429 1427 1425 1423 1422 1421 1419 1418 1417 1417 1416 1416 1417 1416 1416 1416 1415 1415 1415 1415 1415 1415 1415 1415 1415 1415 1415 1415 1415 1414 1413 1412 1411 1410 1408 1407 1405 1403 1402
1435 1433 1432 1430 1427 1425 1423 1422 1420 1419 1417 1416 1416 1415 1414 1414 1415 1414 1414 1413 1412 1412 1412 1412 1411 1411 1411 1411 1410 1409 1409 1409 1408 1408 1407 1406 1405 1404 1403 1401 1399 1397 1393
1432 1431 1430 1428 1426 1424 1422 1420 1419 1417 1416 1415 1414 1414 1413 1412 1412 1412 1411 1410 1409 1409 1408 1408 1408 1407 1407 1406 1406 1405 1404 1403 1403 1402 1401 1400 1399 1398 1397 1396 1393 1391 1388
1430 1428 1427 1426 1424 1422 1420 1419 1417 1416 1415 1414 1413 1412 1411 1411 1410 1410 1409 1408 1407 1406 1405 1405 1404 1403 1403 1402 1401 1400 1399 1398 1398 1397 1395 1394 1392 1391 1390 1389 1388 1386 1383
1427 1425 1424 1423 1422 1420 1419 1417 1416 1414 1413 1412 1411 1410 1410 1409 1408 1407 1406 1406 1405 1404 1402 1401 1400 1400 1399 1398 1397 1396 1395 1394 1393 1391 1390 1388 1386 1384 1383 1382 1380 1379 1377
1423 1422 1421 1420 1419 1418 1416 1415 1414 1413 1411 1410 1409 1408 1407 1407 1406 1405 1404 1403 1402 1401 1399 1398 1397 1396 1395 1394 1393 1392 1390 1389 1387 1386 1384 1382 1381 1378 1377 1375 1373 1371 1369
1420 1419 1419 1418 1417 1416 1414 1413 1412 1411 1409 1408 1407 1406 1405 1405 1404 1403 1401 1400 1399 1398 1396 1395 1394 1393 1391 1390 1389 1387 1386 1384 1382 1381 1378 1377 1375 1373 1371 1368 1366 1363 1360
1417 1416 1415 1415 1414 1413 1412 1411 1409 1409 1408 1407 1406 1405 1404 1402 1402 1401 1399 1397 1396 1395 1393 1392 1391 1389 1387 1386 1384 1383 1381 1380 1378 1376 1374 1371 1369 1367 1365 1363 1360 1358 1355
1413 1412 1412 1411 1410 1410 1409 1408 1407 1406 1405 1404 1403 1403 1401 1401 1399 1398 1396 1395 1393 1392 1390 1388 1387 1385 1384 1382 1380 1379 1377 1375 1373 1371 1369 1366 1364 1361 1359 1357 1355 1352 1350
1409 1408 1408 1407 1407 1406 1405 1404 1403 1403 1402 1401 1400 1399 1399 1397 1396 1395 1393 1391 1390 1389 1387 1385 1384 1382 1381 1379 1377 1375 1373 1371 1368 1366 1364 1362 1359 1357 1354 1352 1350 1347 1345
1405 1405 1404 1404 1403 1402 1402 1401 1400 1399 1398 1398 1398 1397 1396 1394 1393 1391 1390 1388 1387 1385 1384 1382 1381 1379 1377 1375 1373 1371 1369 1367 1364 1361 1359 1357 1355 1352 1350 1347 1345 1343 1341
1401 1401 1400 1400 1399 1399 1398 1397 1397 1396 1395 1394 1394 1393 1392 1391 1389 1388 1387 1385 1383 1382 1381 1379 1378 1376 1374 1372 1370 1368 1365 1363 1360 1357 1355 1352 1350 1348 1345 1343 1341 1338 1337
1397 1397 1396 1396 1395 1395 1394 1394 1393 1392 1392 1391 1390 1389 1388 1387 1385 1384 1383 1382 1381 1379 1378 1376 1374 1373 1370 1368 1366 1364 1361 1359 1356 1353 1350 1348 1346 1343 1341 1338 1336 1334 1332
1393 1392 1392 1392 1391 1391 1390 1390 1389 1389 1388 1387 1387 1386 1385 1384 1382 1381 1380 1379 1377 1376 1374 1373 1371 1369 1367 1365 1362 1359 1357 1354 1351 1349 1346 1343 1341 1339 1337 1334 1332 1330 1328
1388 1388 1388 1387 1387 1387 1386 1386 1385 1385 1384 1384 1383 1383 1382 1380 1379 1378 1377 1375 1374 1372 1371 1369 1367 1365 1363 1361 1358 1355 1353 1350 1347 1344 1341 1339 1337 1335 1333 1331 1328 1326 1324
1384 1384 1383 1383 1383 1383 1382 1382 1381 1381 1380 1380 1379 1378 1377 1376 1375 1374 1373 1371 1370 1368 1367 1365 1363 1361 1359 1357 1355 1352 1349 1346 1343 1340 1337 1335 1333 1331 1329 1327 1325 1322 1320
1379 1379 1379 1379 1379 1378 1378 1377 1377 1377 1376 1375 1375 1374 1373 1372 1371 1370 1369 1368 1366 1364 1362 1361 1359 1357 1355 1353 1350 1348 1345 1342 1339 1336 1334 1331 1329 1327 1325 1323 1321 1320 1317
1375 1375 1374 1374 1374 1374 1374 1373 1373 1372 1372 1371 1370 1370 1369 1368 1367 1366 1365 1363 1362 1360 1358 1356 1355 1353 1350 1348 1346 1343 1341 1339 1336 1333 1331 1328 1326 1324 1322 1321 1319 1317 1315
1370 1370 1370 1370 1370 1369 1369 1369 1368 1368 1367 1367 1366 1366 1365 1364 1363 1362 1361 1359 1357 1356 1354 1352 1350 1349 1346 1344 1342 1339 1337 1335 1332 1330 1328 1326 1323 1321 1319 1318 1316 1314 1313